Rome, GA

6:20 AM EST on November 19, 2017 (GMT -0500)
Russell

Weather History for KRMG - February, 2014

Change the Weather History Date:

Saturday, February 8, 2014

  Actual Average Record
Temperature  
Mean Temperature 42 °F 43 °F  
Max Temperature 51 °F 54 °F 75 °F (2001)
Min Temperature 33 °F 32 °F 23 °F (2006)
Degree Days  
Heating Degree Days 23 22  
Month to date heating degree days 192 181  
Since 1 July heating degree days 2426 2223  
Moisture  
Dew Point 30 °F    
Average Humidity 69    
Maximum Humidity 92    
Minimum Humidity 45    
Precipitation  
Precipitation 0.00 in 0.16 in 0.57 in (2017)
Month to date precipitation 1.73 1.32  
Year to date precipitation 5.02 6.14  
Snow  
Snow 0.00 in - - ()
Month to date snowfall 0.0  
Since 1 July snowfall T  
Snow Depth 0.00 in    
Sea Level Pressure  
Sea Level Pressure 30.20 in    
Wind  
Wind Speed 1 mph (WNW)    
Max Wind Speed 9 mph    
Max Gust Speed 13 mph    
Visibility 10 miles    
Events      
T = Trace of Precipitation, MM = Missing Value Source: NWS Daily Summary

Daily Weather History Graph

Daily Weather History Graph

Search for Another Location

Airport or City:

Trip Planner

Search our weather history database for the weather conditions in past years. The results will help you decide how hot, cold, wet, or windy it might be!

Date:

Astronomy

Feb. 08, 2014 Rise Set
Actual Time 7:32 AM EST 6:17 PM EST
Civil Twilight 7:06 AM EST 6:43 PM EST
Nautical Twilight 6:36 AM EST 7:13 PM EST
Astronomical Twilight 6:07 AM EST 7:42 PM EST
Moon 1:14 PM EST (2/8) 2:40 AM EST (2/8)
Length of Visible Light 11h 37m
Length of Day
10h 45m
Waxing Gibbous, 68% of the Moon is Illuminated
Feb 8
Waxing Gibbous
Feb 14
Full
Feb 22
Last Quarter
Mar 1
New
Mar 8
First Quarter

Hourly Weather History & Observations

Time (EST) Temp. Windchill Dew Point Humidity Pressure Visibility Wind Dir Wind Speed Gust Speed Precip Events Conditions
12:53 AM 37.9 °F 35.5 °F 26.1 °F 62% 30.25 in 10.0 mi NNW 3.5 mph - N/A   Overcast
1:53 AM 37.0 °F - 28.0 °F 70% 30.24 in 10.0 mi Calm Calm - N/A   Overcast
2:53 AM 36.0 °F - 27.0 °F 70% 30.23 in 10.0 mi Calm Calm - N/A   Overcast
3:53 AM 36.0 °F - 28.9 °F 76% 30.22 in 10.0 mi Calm Calm - N/A   Overcast
4:53 AM 36.0 °F - 28.0 °F 73% 30.22 in 10.0 mi Calm Calm - N/A   Overcast
5:53 AM 37.0 °F 34.5 °F 27.0 °F 67% 30.22 in 10.0 mi NNW 3.5 mph - N/A   Overcast
6:53 AM 36.0 °F - 27.0 °F 70% 30.21 in 10.0 mi Calm Calm - N/A   Partly Cloudy
7:53 AM 35.1 °F 32.2 °F 28.9 °F 78% 30.24 in 10.0 mi South 3.5 mph - N/A   Mostly Cloudy
8:53 AM 37.0 °F 34.5 °F 28.0 °F 70% 30.26 in 10.0 mi NW 3.5 mph - N/A   Overcast
9:53 AM 37.9 °F - 28.0 °F 68% 30.26 in 10.0 mi Calm Calm - N/A   Overcast
10:53 AM 41.0 °F - 28.9 °F 62% 30.26 in 10.0 mi Calm Calm - N/A   Overcast
11:53 AM 44.1 °F - 28.9 °F 55% 30.23 in 10.0 mi Calm Calm - N/A   Overcast
12:53 PM 46.9 °F - 27.0 °F 46% 30.19 in 10.0 mi Calm Calm - N/A   Overcast
1:53 PM 48.0 °F - 28.9 °F 48% 30.18 in 10.0 mi Calm Calm - N/A   Overcast
2:53 PM 48.0 °F - 30.0 °F 50% 30.16 in 10.0 mi WNW 6.9 mph - N/A   Overcast
3:53 PM 50.0 °F - 30.9 °F 48% 30.14 in 10.0 mi WSW 3.5 mph - N/A   Mostly Cloudy
4:53 PM 50.0 °F - 32.0 °F 50% 30.14 in 10.0 mi Calm Calm - N/A   Overcast
5:53 PM 50.0 °F - 33.1 °F 52% 30.14 in 10.0 mi Calm Calm - N/A   Mostly Cloudy
6:53 PM 45.0 °F - 34.0 °F 65% 30.14 in 10.0 mi Calm Calm - N/A   Overcast
7:53 PM 39.9 °F - 33.1 °F 77% 30.14 in 10.0 mi Calm Calm - N/A   Clear
8:53 PM 37.9 °F - 33.1 °F 83% 30.16 in 10.0 mi Calm Calm - N/A   Clear
9:53 PM 35.1 °F - 32.0 °F 89% 30.18 in 10.0 mi Calm Calm - N/A   Mostly Cloudy
10:53 PM 36.0 °F - 33.1 °F 89% 30.17 in 10.0 mi Calm Calm - N/A   Overcast
11:53 PM 35.1 °F - 33.1 °F 92% 30.16 in 10.0 mi Calm Calm - N/A   Overcast